View from above orbital plane
|
View from above satellite
|
Ground track
|
The orbit data is extracted from the following two-line orbital elements,
1 39087U 13009B 21016.12230837 .00000090 00000-0 45910-4 0 9998
2 39087 98.4342 222.7479 0012867 12.7060 347.4443 14.35887735413336
Epoch (UTC): | 16 January 2021 02:56:07 |
Eccentricity: | 0.0012867 |
inclination: | 98.4342° |
perigee height: | 763 km |
apogee height: | 781 km |
right ascension of ascending node: | 222.7479° |
argument of perigee: | 12.7060° |
revolutions per day: | 14.35887735 |
mean anomaly at epoch: | 347.4443° |
orbit number at epoch: | 41333 |
The dashed part of the orbit path shows where the satellite is in the earth's shadow,
|
|